Regional Weather Roundup
Issued by NWS

Home | Current Version | Previous Version | Text Only | Print | Product List | Glossary On
Versions: 1 2 3 4 5 6 7 8 9 10 11 12 13 14 15 16 17 18 19 20 21 22 23 24 25 26 27 28 29 30 31 32 33 34 35 36 37 38 39 40 41 42 43 44 45 46 47 48 49 50
000
ASUS45 KPSR 280710
RWRAZ

ARIZONA HOURLY REGIONAL WEATHER ROUNDUP
NATIONAL WEATHER SERVICE PHOENIX AZ
1200 AM MST FRI JUL 28 2017

NOTE: FAIR INDICATES FEW OR NO CLOUDS BELOW 12,000 FEET WITH NO
SIGNIFICANT WEATHER AND/OR OBSTRUCTIONS TO VISIBILITY.

AZZ001>003-036-280800-
NORTHWEST ARIZONA

CITY           SKY/WX    TMP DP  RH WIND       PRES   REMARKS
KINGMAN        PTCLDY    81  54  39 CALM      30.00R
$$

AZZ004>008-015-016-018-280800-
NORTH CENTRAL ARIZONA

CITY           SKY/WX    TMP DP  RH WIND       PRES   REMARKS
GRAND CANYON   PTCLDY    62  61  96 CALM      30.28F
WILLIAMS       MOCLDY    63  54  72 S7        30.29S
PRESCOTT       MOCLDY    69  63  81 CALM      30.16S
FLAGSTAFF      PTCLDY    56  55  97 CALM      30.32S
PAYSON         CLOUDY    66  61  82 CALM      30.21S
PAGE           MOCLDY    80  56  43 S14G25    30.05F
$$

AZZ009>014-017-280800-
NORTHEAST ARIZONA

CITY           SKY/WX    TMP DP  RH WIND       PRES   REMARKS
WINSLOW        CLOUDY    69  62  78 SE7       30.17F
SAINT JOHNS    CLOUDY    66  64  93 E10       30.24R
WINDOW ROCK    LGT RAIN  64  57  78 CALM      30.30F
SHOW LOW         N/A    N/A N/A N/A MISG        N/A
$$

AZZ540-542>544-546-548-280800-
GREATER PHOENIX AREA

CITY           SKY/WX    TMP DP  RH WIND       PRES   REMARKS
PHOENIX        CLOUDY    92  60  34 SE18G26   29.85R
BUCKEYE        CLOUDY    91  59  33 SE22G28   29.83R
LUKE AFB       CLOUDY    94  60  32 SE18G30   29.83R
DEER VALLEY    CLOUDY    91  62  37 SE13G23   29.86R
SCOTTSDALE     CLOUDY    91  60  35 SE9       29.89R
$$

AZZ539-553-280800-
SOUTHWEST MARICOPA COUNTY AND PINAL COUNTY

CITY           SKY/WX    TMP DP  RH WIND       PRES   REMARKS
CASA GRANDE    CLOUDY    89  65  44 SE9       29.91R
GILA BEND      FAIR      98  60  27 E8        29.79R
$$

AZZ503-504-507>509-280800-
SOUTHEAST ARIZONA

CITY           SKY/WX    TMP DP  RH WIND       PRES   REMARKS
TUCSON         CLOUDY    79  66  64 S16G22    30.05R
DAVIS-MONTHAN  CLOUDY    75  67  76 S10       30.04R
NOGALES        LGT RAIN  68  67  96 SE10      30.17S
SIERRA VISTA   LGT RAIN  66  63  88 W14       30.18F
DOUGLAS        CLOUDY    67  63  87 W5        30.15F
SAFFORD        CLOUDY    71  67  87 E9        30.07F
$$

AZZ532-280800-
SOUTHWEST ARIZONA

CITY           SKY/WX    TMP DP  RH WIND       PRES   REMARKS
YUMA           MOCLDY    94  54  25 CALM      29.75R
$$

CAZ041-043-047-048-061-525>527-560>570-280800-
SOUTHERN CALIFORNIA

CITY           SKY/WX    TMP DP  RH WIND       PRES   REMARKS
DOWNTOWN L.A.  CLEAR     69  62  78 W3        29.91S
L.A. AIRPORT   PTCLDY    67  64  90 W6        29.92S
SAN DIEGO      MOCLDY    71  65  81 NW7       29.93F
BURBANK        CLEAR     68  60  75 E8        29.92S
ONTARIO        PTCLDY    72  58  61 W10       29.92S
RIVERSIDE      CLEAR     71  59  65 W7        29.93R
PALM SPRINGS   CLEAR     92  49  22 S3        29.77R
EL CENTRO NAS  CLEAR     93  44  18 SW12      29.73F
IMPERIAL       CLEAR     93  52  24 SW10      29.71F
BLYTHE         PTCLDY   101  57  23 SW10      29.74R HX 100
NEEDLES        CLEAR    102  38  11 W10       29.74S
$$

NVZ020-UTZ003-280800-
SOUTHERN NEVADA-UTAH

CITY           SKY/WX    TMP DP  RH WIND       PRES   REMARKS
LAS VEGAS      PTCLDY    94  52  24 SW6       29.85S
SALT LAKE CITY PTCLDY    75  60  59 S3        30.07S
$$

NMZ009-TXZ055-280800-
NEW MEXICO-WEST TEXAS

CITY           SKY/WX    TMP DP  RH WIND       PRES   REMARKS
ALBUQUERQUE    RAIN      68  63  84 E10       30.26R
EL PASO        MOCLDY    71  64  78 NE7       30.08R
$$


........................KEY........................
SKY/WX - SKY CONDITION/WEATHER
TMP    - TEMPERATURE IN FAHRENHEIT
DP     - DEW POINT IN FAHRENHEIT
RH     - RELATIVE HUMIDITY IN PERCENT
WIND   - DIRECTION AND SPEED IN MILES PER HOUR (MPH)
VRB    - VARIABLE WIND DIRECTION
PRES   - MEAN SEA LEVEL PRESSURE IN INCHES OF MERCURY
         F - FALLING PRESSURE   R - RISING PRESSURE
         S - STEADY PRESSURE
VSB    - VISIBILITY IN MILES
HX     - HEAT INDEX IN FAHRENHEIT
WCI    - WIND CHILL INDEX IN FAHRENHEIT
TC     - TEMPERATURE IN CELSIUS WHICH IS ALSO KNOWN AS
         TEMPERATURE IN CENTIGRADE
AFB    - AIR FORCE BASE
         LUKE AFB IS LUKE AIR FORCE BASE
         DAVIS-MONTHAN IS DAVIS-MONTHAN AIR FORCE BASE
NAS    - NAVAL AIR STATION
         EL CENTRO NAS IS EL CENTRO NAVAL AIR STATION
N/A    - NOT AVAILABLE




USA.gov is the U.S. government's official web portal to all federal, state and local government web resources and services.